Orbital Elements at Epoch 2459000.5 (2020-May-31.0) TDB
Reference: JPL 15 (heliocentric ecliptic J2000)
Element | Value | Uncertainty (1-sigma) | Units |
e | .1741526903901788 | 3.9262e-08 | |
a | 3.174735014334547 | 2.9557e-08 | au |
q | 2.621846370312282 | 1.3724e-07 | au |
i | 13.89181575727692 | 7.8105e-06 | deg |
node | 324.1486606418889 | 1.5019e-05 | deg |
peri | 81.93976560938461 | 2.9201e-05 | deg |
M | 291.788706955749 | 2.1636e-05 | deg |
tp | 2459391.983471874438 (2021-Jun-26.48347187) | 0.00012328 | TDB |
period | 2066.139543541113 5.66 | 2.8854e-05 7.9e-08 | d yr |
n | .1742379894549637 | 2.4333e-09 | deg/d |
Q | 3.72762365835681 | 3.4705e-08 | au |
|
| | Orbit Determination Parameters
Additional Information
|